Weather History for Whiting Fld NAS, FL

Change the Weather History Date:

Sunday, May 19, 2013

  Actual Average Record
Temperature  
Mean Temperature 74 °F -  
Max Temperature 84 °F 83 °F 95 °F (1998)
Min Temperature 64 °F 63 °F 52 °F (2011)
Cooling Degree Days 9    
Growing Degree Days 24 (Base 50)    
Moisture  
Dew Point 66 °F    
Average Humidity 82    
Maximum Humidity 94    
Minimum Humidity 55    
Precipitation  
Precipitation 0.00 in - - ()
Sea Level Pressure  
Sea Level Pressure 30.02 in    
Wind  
Wind Speed 2 mph (South)    
Max Wind Speed 12 mph    
Max Gust Speed -    
Visibility 5 miles    
Events Fog , Rain    
Averages and records for this station are not official NWS values.
T = Trace of Precipitation, MM = Missing Value Source: NWS Daily Summary

Daily Weather History Graph

Daily Weather History Graph

Search for Another Location

Airport:

Trip Planner

Search our weather history database for the weather conditions in past years. The results will help you decide how hot, cold, wet, or windy it might be!

Date:

Astronomy

May. 19, 2013 Rise Set
Actual Time 5:50 AM CDT 7:38 PM CDT
Civil Twilight 5:24 AM CDT 8:05 PM CDT
Nautical Twilight 4:52 AM CDT 8:37 PM CDT
Astronomical Twilight 4:18 AM CDT 9:11 PM CDT
Moon 2:05 PM CDT (5/19) 1:49 AM CDT (5/19)
Length of Visible Light 14h 41m
Length of Day
13h 47m
Waxing Gibbous, 65% of the Moon is Illuminated
May 19
Waxing Gibbous
May 24
Full
May 31
Last Quarter
Jun 8
New
Jun 16
First Quarter

Hourly Weather History & Observations

Time (CDT) Temp. Heat Index Dew Point Humidity Pressure Visibility Wind Dir Wind Speed Gust Speed Precip Events Conditions
12:56 AM 68.0 °F - 64.9 °F 90% 29.99 in 7.0 mi Calm Calm - N/A   Clear
1:56 AM 69.1 °F - 66.0 °F 90% 29.98 in 9.0 mi SSW 3.5 mph - N/A   Clear
2:56 AM 68.0 °F - 64.9 °F 90% 29.98 in 4.0 mi Calm Calm - N/A   Partly Cloudy
3:01 AM 66.2 °F - 64.4 °F 94% 30.02 in 1.8 mi Calm Calm - N/A   Partly Cloudy
3:05 AM 66.2 °F - 64.4 °F 94% 30.02 in 0.5 mi Calm Calm - N/A Fog Fog
3:16 AM 68.0 °F - 64.4 °F 88% 30.02 in 1.5 mi Calm Calm - N/A   Partly Cloudy
3:19 AM 68.0 °F - 64.4 °F 88% 30.02 in 3.0 mi WSW 3.5 mph - N/A   Partly Cloudy
3:36 AM 68.0 °F - 64.4 °F 88% 30.02 in 1.8 mi Calm Calm - N/A   Partly Cloudy
3:43 AM 66.2 °F - 64.4 °F 94% 30.03 in 0.5 mi Calm Calm - N/A Fog Fog
3:51 AM 66.2 °F - 64.4 °F 94% 30.03 in 0.2 mi Calm Calm - N/A Fog Fog
3:56 AM 66.0 °F - 63.0 °F 90% 29.99 in 0.2 mi Calm Calm - N/A Fog Fog
4:09 AM 66.2 °F - 64.4 °F 94% 30.04 in 0.5 mi Calm Calm - N/A Fog Fog
4:24 AM 66.2 °F - 64.4 °F 94% 30.04 in 1.0 mi Calm Calm - N/A   Overcast
4:30 AM 66.2 °F - 64.4 °F 94% 30.04 in 3.0 mi Calm Calm - N/A   Mostly Cloudy
4:37 AM 66.2 °F - 64.4 °F 94% 30.04 in 1.5 mi Calm Calm - N/A   Mostly Cloudy
4:44 AM 66.2 °F - 62.6 °F 88% 30.04 in 0.2 mi Calm Calm - 0.00 in Fog , Rain Light Rain
4:53 AM 66.2 °F - 62.6 °F 88% 30.04 in 0.2 mi Calm Calm - 0.00 in Fog Fog
4:56 AM 66.0 °F - 63.0 °F 90% 30.00 in 0.2 mi Calm Calm - 0.00 in Fog Fog
5:19 AM 64.4 °F - 62.6 °F 94% 30.05 in 0.2 mi Calm Calm - N/A Fog Fog
5:49 AM 64.4 °F - 62.6 °F 94% 30.06 in 0.2 mi Calm Calm - N/A Fog Fog
5:56 AM 66.9 °F - 64.0 °F 90% 30.01 in 0.2 mi Calm Calm - N/A Fog Fog
6:30 AM 66.2 °F - 64.4 °F 94% 30.06 in 0.2 mi Calm Calm - N/A Fog Fog
6:53 AM 68.0 °F - 64.4 °F 88% 30.06 in 0.2 mi Calm Calm - N/A Fog Fog
6:56 AM 68.0 °F - 64.9 °F 90% 30.02 in 0.2 mi Calm Calm - N/A Fog Fog
7:15 AM 69.8 °F - 66.2 °F 88% 30.06 in 0.5 mi Calm Calm - N/A Fog Fog
7:20 AM 69.8 °F - 66.2 °F 88% 30.06 in 2.0 mi Calm Calm - N/A   Mostly Cloudy
7:26 AM 71.6 °F - 68.0 °F 88% 30.06 in 5.0 mi Calm Calm - N/A   Scattered Clouds
7:56 AM 73.9 °F - 69.1 °F 85% 30.02 in 10.0 mi SW 3.5 mph - N/A   Clear
8:56 AM 78.1 °F - 66.9 °F 68% 30.03 in 10.0 mi SW 8.1 mph - N/A   Clear
9:53 AM 80.6 °F 83.2 °F 68.0 °F 65% 30.07 in 10.0 mi South 8.1 mph - 0.00 in   Mostly Cloudy
9:56 AM 81.0 °F 83.3 °F 66.9 °F 62% 30.02 in 10.0 mi Variable 4.6 mph - 0.00 in   Mostly Cloudy
10:56 AM 82.9 °F 85.8 °F 68.0 °F 60% 30.03 in 10.0 mi South 8.1 mph - 0.00 in   Mostly Cloudy
11:56 AM 82.9 °F 85.4 °F 66.9 °F 58% 30.02 in 10.0 mi South 6.9 mph - 0.00 in   Partly Cloudy
12:41 PM 82.4 °F 85.4 °F 68.0 °F 62% 30.05 in 10.0 mi South 9.2 mph - 0.00 in   Mostly Cloudy
12:56 PM 82.9 °F 85.8 °F 68.0 °F 60% 30.00 in 10.0 mi SSW 9.2 mph - 0.00 in   Mostly Cloudy
1:04 PM 84.2 °F 87.3 °F 68.0 °F 58% 30.04 in 10.0 mi SW 5.8 mph - N/A   Mostly Cloudy
1:56 PM 82.9 °F 85.8 °F 68.0 °F 60% 30.00 in 10.0 mi South 11.5 mph - 0.00 in   Scattered Clouds
2:56 PM 84.0 °F 86.3 °F 66.0 °F 55% 29.98 in 10.0 mi SSW 9.2 mph - 0.00 in   Clear
3:56 PM 80.1 °F 82.9 °F 69.1 °F 69% 29.99 in 10.0 mi South 9.2 mph - N/A   Clear
4:56 PM 80.1 °F 82.7 °F 68.0 °F 67% 29.98 in 10.0 mi South 8.1 mph - N/A   Clear
5:03 PM 80.6 °F 83.9 °F 69.8 °F 70% 30.02 in 10.0 mi South 6.9 mph - N/A   Overcast
5:56 PM 79.0 °F - 68.0 °F 69% 29.98 in 10.0 mi South 9.2 mph - N/A   Overcast
6:56 PM 77.0 °F - 68.0 °F 74% 29.98 in 10.0 mi South 9.2 mph - N/A   Mostly Cloudy
7:56 PM 75.0 °F - 68.0 °F 79% 29.98 in 10.0 mi South 5.8 mph - N/A   Mostly Cloudy
8:56 PM 75.0 °F - 69.1 °F 82% 29.99 in 10.0 mi South 5.8 mph - N/A   Mostly Cloudy
9:56 PM 73.9 °F - 69.1 °F 85% 30.02 in 10.0 mi South 5.8 mph - N/A   Mostly Cloudy
10:56 PM 72.0 °F - 68.0 °F 87% 30.03 in 8.0 mi Calm Calm - N/A   Clear
11:24 PM 69.8 °F - 66.2 °F 88% 30.06 in 1.5 mi Calm Calm - N/A   Clear
11:34 PM 69.8 °F - 66.2 °F 88% 30.06 in 0.8 mi Calm Calm - N/A   Clear
11:42 PM 69.8 °F - 66.2 °F 88% 30.06 in 1.2 mi Calm Calm - N/A   Clear
11:49 PM 69.8 °F - 66.2 °F 88% 30.06 in 3.0 mi SSE 3.5 mph - N/A   Clear
11:56 PM 69.1 °F - 66.0 °F 90% 30.02 in 1.5 mi SE 3.5 mph - N/A   Clear